Your browser is no longer supported. Please, upgrade your browser.
Filter
Ticker Owner Relationship Date Transaction Cost #Shares Value ($) #Shares Total SEC Form 4
PRAAWhite LauraChief Compliance OfficerAug 06Sale42.041,64569,15625,238Aug 07 09:59 PM
EVERAuguste DarrylSee RemarksAug 05Sale45.072,00090,14056,597Aug 07 09:57 PM
CVNAHUSTON BENJAMIN E.Chief Operating OfficerAug 07Sale202.65190,00038,503,50010,991Aug 07 09:43 PM
EVBGBrickley PatrickSVP, Chief Financial OfficerAug 05Sale150.196,458969,9321Aug 07 09:41 PM
CVNAKEETON RYAN S.Chief Brand OfficerAug 07Sale200.1070,00014,007,00015,801Aug 07 09:40 PM
EVBGTotton JamesEVP, Product Mgmt, Eng & OpsAug 05Sale148.6621,8753,251,8570Aug 07 09:39 PM
KMPRMullins Christine F.EVP & Chief HR OfficerAug 05Option Exercise60.0010,720643,20021,236Aug 07 09:39 PM
KMPRMullins Christine F.EVP & Chief HR OfficerAug 05Sale81.251,250101,56310,516Aug 07 09:39 PM
CVNABREAUX PAUL W.See RemarksAug 07Sale201.0430,0006,031,2009,653Aug 07 09:38 PM
CVNAJENKINS MARK W.Chief Financial OfficerAug 07Sale202.60190,00038,493,81010,983Aug 07 09:37 PM
CVNAGILL DANIEL J.Chief Product OfficerAug 07Sale202.38337,50068,303,2509,745Aug 07 09:35 PM
BOCHBurks GaryDirectorAug 04Buy7.706605,0819,792Aug 07 09:34 PM
MOHROMNEY RONNADirectorAug 05Sale190.141,143217,33020,594Aug 07 09:34 PM
MOHROMNEY RONNADirectorAug 07Sale194.0737572,77620,219Aug 07 09:34 PM
CVNAPLATT IRA J.DirectorAug 07Sale210.9471,00014,976,74024,559Aug 07 09:33 PM
WConine StevenCo-FounderAug 05Sale298.0040,00011,920,000120,000Aug 07 09:31 PM
WConine StevenCo-FounderAug 07Sale323.0111,7373,791,168108,263Aug 07 09:31 PM
RUNJurich Lynn MichelleChief Executive OfficerAug 07Option Exercise5.0841,667211,6683,077,307Aug 07 09:30 PM
RUNJurich Lynn MichelleChief Executive OfficerAug 07Sale47.0441,6671,959,9343,035,640Aug 07 09:30 PM
TENUsitalo ScottExecutive Vice PresidentAug 07Buy7.925,00039,60021,351Aug 07 09:20 PM
JBRONSON JOSEPH RDirectorAug 06Sale90.083,500315,27328,103Aug 07 09:19 PM
TENFREYMAN THOMAS CDirectorAug 07Buy7.7030,000231,00067,932Aug 07 09:17 PM
HIRYAN KIMBERLY KSenior Vice PresidentAug 06Option Exercise20.683,10064,09373,600Aug 07 09:14 PM
HIRYAN KIMBERLY KSenior Vice PresidentAug 06Sale32.923,100102,05270,500Aug 07 09:14 PM
PLXSJermain Patrick JohnExec. VP & CFOAug 05Option Exercise45.452,475112,47643,806Aug 07 09:10 PM
PLXSJermain Patrick JohnExec. VP & CFOAug 05Sale77.032,475190,65741,331Aug 07 09:10 PM
SRCLGinnetti DanielEVP InternationalAug 06Sale64.806,238404,2227,364Aug 07 09:09 PM
SICampbell Robert CharlesDirectorJun 09Sale14.827,000103,734852Aug 07 09:08 PM
CARGSteinert LangleyCEO and ChairmanAug 05Sale30.6024,010734,658636,414Aug 07 09:08 PM
CARGSteinert LangleyCEO and ChairmanAug 05Sale30.601,97560,431157,378Aug 07 09:08 PM
CARGSteinert LangleyCEO and ChairmanAug 06Sale31.1724,010748,360612,404Aug 07 09:08 PM
CARGSteinert LangleyCEO and ChairmanAug 06Sale31.171,97561,558155,403Aug 07 09:08 PM
CARGSteinert LangleyCEO and ChairmanAug 07Sale29.5024,011708,282588,393Aug 07 09:08 PM
CARGSteinert LangleyCEO and ChairmanAug 07Sale29.501,97458,231153,429Aug 07 09:08 PM
SICampbell Robert CharlesDirectorMay 28Sale14.6214,921218,20367,852Aug 07 09:06 PM
EXPDPOWELL BRADLEY SSenior VP - CFOAug 06Option Exercise47.399,325441,91223,105Aug 07 09:03 PM
EXPDPOWELL BRADLEY SSenior VP - CFOAug 05Option Exercise45.84121,1075,551,370134,887Aug 07 09:03 PM
EXPDPOWELL BRADLEY SSenior VP - CFOAug 05Sale84.36121,10710,216,58713,780Aug 07 09:03 PM
EXPDPOWELL BRADLEY SSenior VP - CFOAug 06Sale84.839,325791,04013,780Aug 07 09:03 PM
TXRHZARLEY JAMES RDirectorAug 06Sale59.8013,100783,380104,743Aug 07 09:02 PM
TXRHZARLEY JAMES RDirectorAug 06Sale59.8023,8001,423,2400Aug 07 09:02 PM
QRHCFRIEDBERG DANIEL M.DirectorAug 05Buy1.15655,000753,2502,775,489Aug 07 09:00 PM
SIFRANK DENNIS SDirectorAug 05Sale14.0475,0001,052,775264,134Aug 07 09:00 PM
SIFRANK DENNIS SDirectorAug 06Sale14.1975,0001,064,303189,134Aug 07 09:00 PM
SIFRANK DENNIS SDirectorAug 06Sale14.1975,0001,064,30335,710Aug 07 09:00 PM
QRHCWYNNEFIELD PARTNERS SMALL CAP 10% OwnerAug 05Buy1.14285,000324,9001,000,778Aug 07 08:58 PM
EWBOBO DONALD E JRCVP,Strategy/Corp DevelopmentAug 06Sale77.2812,000927,378111,696Aug 07 08:56 PM
XAIRBENTSUR RONDirectorAug 05Sale6.163,61922,286261,788Aug 07 08:53 PM
XAIRBENTSUR RONDirectorAug 06Sale5.946,19236,777255,596Aug 07 08:53 PM
MNOVNagao HidekiDirectorAug 06Option Exercise2.5815,00038,70016,000Aug 07 08:53 PM
XAIRAvniel AmirCOO and PresidentAug 05Sale6.157,23344,498471,275Aug 07 08:53 PM
XAIRAvniel AmirCOO and PresidentAug 06Sale5.9412,39173,570458,884Aug 07 08:53 PM
CENTBALOUSEK JOHNDirectorAug 05Option Exercise31.766,298200,0247,721Aug 07 08:52 PM
EVHWeinberg JonathanGeneral CounselAug 05Option Exercise3.8410,00038,40076,775Aug 07 08:51 PM
EVHWeinberg JonathanGeneral CounselAug 05Sale13.0110,000130,10066,775Aug 07 08:51 PM
WShah NirajChief Executive OfficerAug 05Sale298.0040,00011,920,000120,000Aug 07 08:48 PM
WShah NirajChief Executive OfficerAug 07Sale323.0111,8243,819,270108,176Aug 07 08:48 PM
CSWIAlverson LukeSVP, GC & SecretaryAug 07Sale71.5370050,07114,633Aug 07 08:47 PM
CSWIArmes Joseph BChairman, President & CEOAug 06Option Exercise25.4225,393645,43167,468Aug 07 08:46 PM
CSWIArmes Joseph BChairman, President & CEOAug 07Option Exercise25.3727,052686,42155,682Aug 07 08:46 PM
CSWIArmes Joseph BChairman, President & CEOAug 07Sale72.7213,607989,50142,075Aug 07 08:46 PM
CSWIArmes Joseph BChairman, President & CEOAug 06Sale72.4925,3931,840,69342,075Aug 07 08:46 PM
MTBCMUNTER CAMERONDirectorAug 06Option Exercise0.004,5000126,000Aug 07 08:45 PM
WORKButterfield StewartChief Executive OfficerAug 05Sale30.1725,000754,250207,623Aug 07 08:44 PM
CNBKAFiller James J10% OwnerJul 31Buy69.0340027,610831,713Aug 07 08:44 PM
CNBKAFiller James J10% OwnerAug 03Buy69.751006,975831,813Aug 07 08:44 PM
CNBKAFiller James J10% OwnerAug 04Buy69.797489831,820Aug 07 08:44 PM
CNBKAFiller James J10% OwnerAug 05Buy70.5020014,100832,020Aug 07 08:44 PM
CNBKAFiller James J10% OwnerAug 07Buy71.1020014,220832,220Aug 07 08:44 PM
WORKHenderson CalChief Technology OfficerAug 05Sale30.091,50045,135135,255Aug 07 08:43 PM
WORKHenderson CalChief Technology OfficerAug 06Sale30.031,50045,045133,755Aug 07 08:43 PM
MTBCDALY JOHN NDirectorAug 06Option Exercise0.004,500096,433Aug 07 08:41 PM
UPWKSrinivasan LeelaDirectorAug 07Sale14.495,97586,56636,045Aug 07 08:38 PM
MTBCBUSQUET ANNEDirectorAug 06Option Exercise0.004,5000190,350Aug 07 08:37 PM
WMiller James R.Chief Technology OfficerAug 05Sale282.653,071868,01823,308Aug 07 08:37 PM
PIIWilliams James PSVP-CHROAug 05Option Exercise65.5714,000917,98028,573Aug 07 08:36 PM
PIIWilliams James PSVP-CHROAug 05Sale107.0014,0001,498,00014,573Aug 07 08:36 PM
EACOLEMAN LEONARD S JRDirectorAug 05Sale145.822,000291,64036,240Aug 07 08:36 PM
PIISpeetzen Michael TEVP & CFOAug 05Option Exercise70.1824,5001,719,41045,055Aug 07 08:35 PM
PIISpeetzen Michael TEVP & CFOAug 05Sale107.1524,5002,625,17520,555Aug 07 08:35 PM
PIIMusso ChristopherSVP-Electrification StrategyAug 05Option Exercise84.587,400625,89235,001Aug 07 08:33 PM
PIIMusso ChristopherSVP-Electrification StrategyAug 05Sale107.007,400791,80027,601Aug 07 08:33 PM
XRXICAHN CARL C10% OwnerAug 05Buy16.07706,08611,346,80224,162,173Aug 07 08:32 PM
XRXICAHN CARL C10% OwnerAug 06Buy16.27456,6517,429,71224,618,824Aug 07 08:32 PM
XRXICAHN CARL C10% OwnerAug 07Buy16.60650,69810,801,58725,269,522Aug 07 08:32 PM
TXNFlessner Kyle MSr. Vice PresidentAug 05Option Exercise53.9426,3481,421,21179,422Aug 07 08:32 PM
TXNFlessner Kyle MSr. Vice PresidentAug 05Sale131.6326,3483,468,25353,074Aug 07 08:32 PM
DTBurns Kevin CCFO and TreasurerAug 05Sale40.90136,6205,587,758197,812Aug 07 08:32 PM
DTLINES JAMES K.DirectorAug 05Sale40.9029,7971,218,697167,463Aug 07 08:31 PM
DTVan Siclen JohnChief Executive OfficerAug 05Sale40.90125,5325,134,2591,273,629Aug 07 08:31 PM
DTVan Siclen JohnChief Executive OfficerAug 05Sale40.90300,00012,270,0003,645Aug 07 08:31 PM
DTPace Stephen J.SVP, Global SalesAug 05Sale40.90115,7364,733,602137,340Aug 07 08:29 PM
IRMDALLEN MONTY KDirectorAug 06Sale22.229,062201,35812,221Aug 07 08:27 PM
NCMIStandard General L.P.10% OwnerAug 05Buy2.8974,831216,59119,309,279Aug 07 08:24 PM
NCMIStandard General L.P.10% OwnerAug 06Buy2.90103,922301,34319,413,201Aug 07 08:24 PM
NCMIStandard General L.P.10% OwnerAug 07Buy2.904,78913,86819,417,990Aug 07 08:24 PM
CDNSZAMAN ANEELSr. Vice PresidentAug 07Sale110.312,382262,758175,179Aug 07 08:17 PM
CDLXSOSIN CLIFFORD10% OwnerAug 05Buy63.79145,0009,249,7104,159,249Aug 07 08:13 PM
CDLXSOSIN CLIFFORD10% OwnerAug 06Buy66.1870,0004,632,6564,229,249Aug 07 08:13 PM
PRTYSOSIN CLIFFORD10% OwnerAug 06Buy1.66200,000331,96010,866,736Aug 07 08:10 PM
CDNSDEVGAN ANIRUDHPresidentAug 07Sale110.334,204463,827328,262Aug 07 08:07 PM
CGCarlyle Group Management L.L.C10% OwnerAug 05Sale128.55230,17229,588,6110Aug 07 08:06 PM
TWTRMontano MichaelEngineering LeadAug 05Sale36.501,75063,875702,213Aug 07 08:06 PM
CSTLMAETZOLD DEREK JPres. & Chief Exec. OfficerAug 05Sale41.675,000208,3601,572,348Aug 07 08:05 PM
CSTLMAETZOLD DEREK JPres. & Chief Exec. OfficerAug 06Sale41.368,500351,5291,563,848Aug 07 08:05 PM
FOLDProut SamanthaPrincipal Accounting OfficerAug 05Option Exercise10.041981,98817,333Aug 07 08:04 PM
FOLDProut SamanthaPrincipal Accounting OfficerAug 05Sale15.051982,98017,135Aug 07 08:04 PM
TWTRDerella MatthewCustomers LeadAug 05Sale37.0826,307975,471372,348Aug 07 08:03 PM
VVVMoughler Craig A.SVP and CSCOAug 05Sale22.009,092200,02415,022Aug 07 08:02 PM
SRPTBarry RichardDirectorAug 07Sale158.5030,0004,754,9723,129,140Aug 07 08:00 PM
VBTXMcDANIEL CARAChief Talent OfficerAug 05Buy17.641,90033,5161,900Aug 07 08:00 PM
ADPTBALDO LANCEChief Medical OfficerAug 06Option Exercise7.806,25048,7506,250Aug 07 08:00 PM
ADPTBALDO LANCEChief Medical OfficerAug 06Sale40.006,250250,0000Aug 07 08:00 PM
IBMGherson Diane JSenior Vice PresidentAug 05Sale126.731,176149,03431,767Aug 07 07:58 PM
ICADStevens Stacey MPresidentAug 05Option Exercise2.906,66719,334178,455Aug 07 07:56 PM
ICADStevens Stacey MPresidentAug 05Sale10.076,66767,147171,788Aug 07 07:56 PM
CENXHoerner John E.EVP - N. American OperationsAug 07Sale10.099,90099,891214,256Aug 07 07:56 PM
QRVOWILKINSON WALTER HDirectorAug 06Sale133.802,347314,02925,742Aug 07 07:54 PM
NBIXROBERTS EIRYChief Medical OfficerAug 05Sale118.842,257268,22511,446Aug 07 07:51 PM
NBIXLloyd-Smith MalcolmChief Regulatory OfficerAug 05Sale118.862,257268,27726,971Aug 07 07:47 PM
NSPSARVADI PAUL JChairman of the Board & CEOAug 05Sale69.2051,5573,567,904702,068Aug 07 07:45 PM
NSPSARVADI PAUL JChairman of the Board & CEOAug 06Sale68.7928,0661,930,767674,002Aug 07 07:45 PM
CLWallace Noel R.Chairman, President & CEOAug 05Option Exercise64.0093,6665,994,624282,097Aug 07 07:43 PM
CLWallace Noel R.Chairman, President & CEOAug 05Sale76.3785,9296,562,045196,168Aug 07 07:43 PM
APPFKane Ida KathleenChief Financial OfficerAug 05Sale159.162,500397,9010Aug 07 07:41 PM
TTGTCotoia MichaelChief Executive OfficerAug 05Sale38.0827,8251,059,57679,115Aug 07 07:41 PM
NEWRSachleben MarkChief Financial OfficerAug 06Option Exercise3.19218,653697,503218,653Aug 07 07:41 PM
NBIXLippoldt DarinChief Legal OfficerAug 05Sale118.872,257268,29728,051Aug 07 07:40 PM
RMNIRowe David W.EVP and CMOAug 06Option Exercise0.0016,6660130,849Aug 07 07:37 PM
OSISSZE VICTOR SGeneral CounselAug 06Option Exercise27.1227,000732,240215,467Aug 07 07:37 PM
NBIXGrigoriadis Dimitri E.Chief Research OfficerAug 05Sale118.832,257268,20079,593Aug 07 07:36 PM
DTTHOMA BRAVO UGP, LLC10% OwnerAug 05Sale40.9021,412,966875,790,30995,078,270Aug 07 07:36 PM
DDOGIttycheria DevDirectorAug 05Sale93.7460,0005,624,259593,332Aug 07 07:36 PM
DDOGIttycheria DevDirectorAug 05Sale93.72300,00028,117,474780,889Aug 07 07:36 PM
IIVIKRAMER FRANCIS JDirectorAug 05Option Exercise17.5314,500254,185253,049Aug 07 07:36 PM
IIVIKRAMER FRANCIS JDirectorAug 05Sale52.5314,500761,653238,549Aug 07 07:36 PM
SWKSALDRICH DAVID JDirectorAug 05Sale144.4215,1002,180,742135,226Aug 07 07:35 PM
IDXXMCKEON BRIAN PEVP, CFO & TreasurerAug 05Option Exercise0.00193049,693Aug 07 07:32 PM
JBHTROBERTS JOHN NPresident and CEOAug 07Sale135.177,4001,000,258321,727Aug 07 07:31 PM
RMNISlepko BrianEVP, Global Service DeliveryAug 06Option Exercise0.0016,6660619,117Aug 07 07:31 PM
NBIXGORMAN KEVIN CHARLESChief Executive OfficerAug 05Sale118.913,390403,101438,021Aug 07 07:29 PM
NTLALEONARD JOHN M.President and CEOAug 06Option Exercise6.835,00034,150472,352Aug 07 07:29 PM
NTLALEONARD JOHN M.President and CEOAug 06Sale21.835,000109,150467,352Aug 07 07:29 PM
RMNIMbugua StanleyGVP & Chief Accounting OfficerAug 06Option Exercise0.009,999010,100Aug 07 07:28 PM
NBIXGano KyleChief Business Development OffAug 05Sale118.872,257268,28695,997Aug 07 07:24 PM
BERYGreene Jason K.EVP - Chief Legal OfficerAug 05Option Exercise21.0010,000210,00010,250Aug 07 07:23 PM
BERYGreene Jason K.EVP - Chief Legal OfficerAug 05Sale52.8410,000528,420250Aug 07 07:23 PM
PRAAFREDRICKSON STEVEN DChairmanAug 05Sale40.978,400344,148274,195Aug 07 07:22 PM
PRAAFREDRICKSON STEVEN DChairmanAug 06Sale43.4431,3001,359,728242,895Aug 07 07:22 PM
CORCRP IV AIV GP, L.L.C.10% OwnerAug 05Sale128.55230,17229,588,6110Aug 07 07:22 PM
NBIXCooke JulieChief Human Resources OfficerAug 05Sale118.912,257268,3838,661Aug 07 07:21 PM
CORCarlyle Realty III, GP, L.L.C.10% OwnerAug 05Sale128.55230,17229,588,6110Aug 07 07:17 PM
MOHWOLF DALE BDirectorAug 06Sale194.324,000777,2785,592Aug 07 07:16 PM
NBIXBozigian Haig P.Chief Development OfficerAug 05Sale118.892,257268,324150,663Aug 07 07:14 PM
RMNIGrady SebastianPresidentAug 06Option Exercise0.0016,666022,166Aug 07 07:12 PM
IDXXMAZELSKY JONATHAN JAYPresident and CEOAug 05Option Exercise0.00385044,512Aug 07 07:12 PM
FDPABU-GHAZALEH MOHAMMADChairman and CEOAug 06Sale24.096,339152,7157,104,373Aug 07 07:12 PM
PKBKKRIPITZ JEFFREY HDirectorAug 07Sale12.518,000100,080171,743Aug 07 07:11 PM
PGNYTPG Group Holdings (SBS) Advis10% OwnerAug 06Sale27.08109,3812,962,49918,325,118Aug 07 07:11 PM
RMNISalaets StevenCIO/EVP/CPO Glo.Sec., IA&Qual.Aug 06Option Exercise0.0016,666079,145Aug 07 07:09 PM
RMNIMaddock KevinEVP, Global Sales - RecurringAug 06Option Exercise0.0016,6660102,506Aug 07 07:09 PM
RMNILyskawa NancyEVP - Global Client OnboardingAug 06Option Exercise0.0016,666023,540Aug 07 07:08 PM
BXCFennebresque Kim SDirectorAug 05Buy19.5825,000489,50054,850Aug 07 07:07 PM
BXCFennebresque Kim SDirectorAug 07Sale18.1525,000453,75029,850Aug 07 07:07 PM
FICOMCMORRIS MARC FDirectorAug 05Option Exercise93.352,300214,7052,806Aug 07 07:05 PM
FICOMCMORRIS MARC FDirectorAug 05Sale436.992,8061,226,1940Aug 07 07:05 PM
FBHSFINLEY BRETT EPresident, Doors & SecurityAug 05Option Exercise54.2339,5272,143,46481,991Aug 07 07:04 PM
FBHSFINLEY BRETT EPresident, Doors & SecurityAug 05Sale78.2039,5273,090,82242,464Aug 07 07:04 PM
ELFBaruch Richard F JrSee RemarksAug 06Option Exercise1.8412,60523,193198,877Aug 07 06:59 PM
ELFBaruch Richard F JrSee RemarksAug 06Sale21.0012,605264,705186,272Aug 07 06:59 PM
KMPREvans Carl Thomas Jr.EVP, Sec. & General CounselAug 05Option Exercise30.9910,331320,1127,567Aug 07 06:59 PM
KMPREvans Carl Thomas Jr.EVP, Sec. & General CounselAug 05Sale81.475,300431,81336,486Aug 07 06:59 PM
CHGGROSENSWEIG DANIELPRESIDENT, CEO & CO-CHAIRMANAug 05Sale84.6128,0002,369,0802,063,179Aug 07 06:58 PM
KMPRBOSCHELLI JOHN MICHAELEVP & Chief Investment OfficerAug 05Option Exercise50.7026,2351,330,02739,526Aug 07 06:53 PM
KMPRBOSCHELLI JOHN MICHAELEVP & Chief Investment OfficerAug 06Sale82.4312,5801,037,00113,287Aug 07 06:53 PM
TERMehta SanjayVP and Chief Financial OfficerAug 05Sale90.005,166464,94026,353Aug 07 06:48 PM
RBCLongley Jason R.VP, Corporate ControllerAug 06Option Exercise77.6083464,7182,572Aug 07 06:42 PM
STSAO'Neil Thomas P.Chief Financial OfficerAug 05Option Exercise4.561,0004,5601,000Aug 07 06:40 PM
STSAO'Neil Thomas P.Chief Financial OfficerAug 05Sale25.001,00025,0000Aug 07 06:40 PM
RBCFOATE DEAN ADirectorAug 06Sale96.517,500723,84225,471Aug 07 06:39 PM
EXPPowers David BDirectorAug 06Sale82.521,519125,3480Aug 07 06:37 PM
DANCollins Jonathan MarkEVP & Chief Financial OfficerAug 05Sale12.769,386119,78354Aug 07 06:37 PM
KLACHiggins Bren D.EVP & Chief Financial OfficerAug 05Sale206.022,609537,5061,828Aug 07 06:36 PM
ELFAMIN TARANGChief Executive OfficerAug 06Sale20.9554,3231,138,250490,672Aug 07 06:36 PM
DANCollins Jonathan MarkEVP & Chief Financial OfficerAug 05Sale12.7628,114358,7119,440Aug 07 06:35 PM
NBIXBENEVICH ERICChief Commercial OfficerAug 05Sale118.852,257268,25415,374Aug 07 06:35 PM
TERTUFANO PAUL JDirectorAug 06Sale91.0015,8001,437,80091,886Aug 07 06:35 PM
BWALissalde FredericPresident and CEOAug 07Sale38.3770,0002,686,166186,938Aug 07 06:34 PM
ELSSeavey PaulEVP & Chief Financial OfficerAug 05Sale66.5317,8361,186,577132,304Aug 07 06:33 PM
MASStraber ReneeVP - Chief HR OfficerAug 05Option Exercise22.924,447101,92378,300Aug 07 06:32 PM
MASStraber ReneeVP - Chief HR OfficerAug 05Sale57.2249,4472,829,25528,853Aug 07 06:32 PM
RBCKunze John CSegment President*Aug 06Option Exercise75.402,976224,3886,502Aug 07 06:31 PM
RBCKunze John CSegment President*Aug 06Sale96.0545243,4163,526Aug 07 06:31 PM
TWLOHu GeorgeChief Operating OfficerAug 05Option Exercise31.7218,488586,439170,449Aug 07 06:31 PM
TWLOHu GeorgeChief Operating OfficerAug 05Sale274.0918,4885,067,432151,961Aug 07 06:31 PM
CLVerduin PatriciaChief Technology OfficerAug 05Option Exercise64.0042,7752,737,60089,800Aug 07 06:30 PM
FIXShaeff JulieChief Accounting OfficerAug 06Option Exercise18.295,916108,22738,980Aug 07 06:30 PM
FIXShaeff JulieChief Accounting OfficerAug 06Sale51.339,358480,37629,622Aug 07 06:30 PM
CLVerduin PatriciaChief Technology OfficerAug 05Sale76.5242,7753,273,00647,025Aug 07 06:30 PM
ELANGARCIA ART ADirectorAug 06Buy24.762,00049,5209,055Aug 07 06:27 PM
open in screener